Tracking 25963 objects as of 12-Aug-2022
HD Live streaming from Space Station
objects crossing your sky now

STARLINK-3522

Track STARLINK-3522 now!
10-day predictions
STARLINK-3522 is classified as:


NORAD ID: 51725
Int'l Code: 2022-016M
Perigee: 545.8 km
Apogee: 548.0 km
Inclination: 53.2 °
Period: 95.4 minutes
Semi major axis: 6917 km
RCS: Unknown
Launch date: February 21, 2022
Source: United States (US)
Launch site: AIR FORCE EASTERN TEST RANGE (AFETR)
aabbcc
Your satellite tracking list
Your tracking list is empty




NASA's NSSDC Master Catalog

Two Line Element Set (TLE):
1 51725U 22016M   22224.58334491  .00023536  00000-0  14921-2 0  9998
2 51725  53.2164  67.9681 0001552  69.4438 258.2826 15.08835940  1307
Source of the keplerian elements: AFSPC